Flag Weather past 2 weeks in Ciudad del Este, Paraguay

Now
81 °F

Sunny.


Feels Like: 84 °F
Forecast: 68 / 91 °F
Wind: 7 mph from East

Location: Foz Do Iguacu Aeroporto

Current Time: Nov 28, 2014 at 9:26:16 AM

Latest Report: Nov 28, 2014 at 9:00 AM


Visibility: 10 mi

Pressure: 29.92 "Hg

Humidity: 70%

Dew point: 70 °F

Location of Ciudad del EsteLocation

Historic Weather in Ciudad del Este — Graph

°F

Ciudad del Este temperature yesterday

Maximum temperature yesterday: 91 °F (at 3:00 PM)
Minimum temperature yesterday: 70 °F (at 3:00 AM)
Average temperature yesterday: 80 °F

Past Weeks' High & Low Weather Summary

 TemperatureHumidityPressure
High91 °F (Nov 27, 3:00 PM)100% (Nov 15, 4:00 AM)30.09 "Hg (Nov 15, 4:00 AM)
Low34 °F (Nov 21, 10:00 PM)31% (Nov 18, 2:00 PM)29.65 "Hg (Nov 25, 5:00 PM)
Average74 °F75%29.88 "Hg
* Reported Nov 13 8:00 AM — Nov 28 8:00 AM, Ciudad del Este, Weather by CustomWeather, © 2014

Note: Actual official high and low records may vary slightly from our data, if they occured in-between our weather recording intervals... More about our weather records

Advertising

Ciudad del Este weather history for previous 24 hours

 ConditionsComfort  
Time TempWeatherWind HumidityBarometerVisibility
8:00 AM
Nov 28
77 °FSunny.12 mph79%29.92 "Hg10 mi
7:00 AM73 °FSunny.2 mph83%29.89 "Hg10 mi
6:00 AM68 °FSunny.2 mph94%29.86 "Hg10 mi
5:00 AM70 °FClear.5 mph94%29.83 "Hg10 mi
4:00 AM68 °FClear.2 mph100%29.83 "Hg10 mi
3:00 AM72 °FPassing clouds.2 mph94%29.83 "HgN/A
2:00 AM70 °FClear.2 mph100%29.83 "Hg10 mi
1:00 AM70 °FClear.2 mph94%29.83 "Hg10 mi
12:00 AM72 °FClear.2 mph88%29.77 "Hg10 mi
11:00 PM
Nov 27
73 °FClear.5 mph89%29.86 "Hg10 mi
10:00 PM77 °FClear.5 mph79%29.86 "Hg10 mi
9:00 PM77 °FClear.2 mph79%29.83 "Hg10 mi
8:00 PM81 °FClear.2 mph70%29.83 "Hg10 mi
7:00 PM86 °FPassing clouds.2 mph59%29.80 "HgN/A
6:00 PM90 °FPassing clouds.3 mph49%29.80 "HgN/A
5:00 PM91 °FScattered clouds.6 mph46%29.80 "HgN/A
4:00 PM91 °FScattered clouds.5 mph49%29.80 "HgN/A
3:00 PM91 °FScattered clouds.8 mph52%29.83 "HgN/A
2:00 PM90 °FScattered clouds.8 mph49%29.83 "HgN/A
1:00 PM88 °FScattered clouds.7 mph59%29.86 "HgN/A
12:00 PM90 °FScattered clouds.2 mph52%29.89 "HgN/A
11:00 AM88 °FPassing clouds.3 mph59%29.89 "HgN/A
10:00 AM86 °FSunny.2 mph66%29.89 "Hg10 mi
9:00 AM81 °FSunny.2 mph79%29.89 "Hg10 mi
Weather by CustomWeather, © 2014

See weather overviewHow to use our weather pages